Location: Brabourne
(51.1333°N, 1.0000°E)
Time: 12:01:42
(UTC+00:00)

ADEOS Rocket - Pass Details

Date: 26 October 2021
Orbit: 858 x 1307 km, 98.8° (Epoch: 26 November)

Event Time Altitude Azimuth Distance (km) Brightness Sun altitude
Exits shadow 23:18:37 15° 12° (NNE) 2,709 5.7 -51.4°
Drops below altitude 10° 23:20:05 10° 3° (N) 3,061 6.0 -51.4°
Sets 23:23:05 0° 350° (N) 3,953 6.8 -51.5°
